Theta_e
329 327 318 315 309 308 303 307 315 316 312 316 317 314 312 314 310 301 328 342 351 350 354 357 358 357 357 356 355 352 352 351 351 351 351 351 351 351 351 351 350 350 353 353 352 354 356 355 354
316 320 308 307 304 299 301 309 311 310 314 317 316 315 313 313 327 330 333 347 350 350 351 354 358 357 357 355 354 352 351 351 351 351 352 352 351 351 351 351 349 349 350 351 354 354 354 353 352
314 308 301 304 302 301 302 308 307 312 315 315 313 318 315 316 330 331 335 348 350 347 349 352 357 357 356 355 353 352 352 351 351 351 352 353 353 353 353 353 352 351 351 351 352 351 352 352 352
306 304 298 296 297 305 307 309 315 313 314 315 315 313 319 327 329 331 348 347 346 346 347 354 357 357 356 354 353 352 352 352 351 351 351 352 352 353 353 352 352 352 351 352 352 352 352 352 353
302 297 293 291 291 306 312 314 313 311 310 312 313 312 314 325 335 344 345 346 343 346 346 353 358 357 355 353 353 353 353 352 351 351 350 351 350 350 350 350 350 350 351 351 351 352 353 354 354
298 295 295 294 302 310 313 314 313 311 311 313 313 312 314 328 335 338 343 341 345 346 350 351 357 356 355 354 353 353 353 353 352 352 351 350 349 348 349 349 350 350 351 351 352 354 355 355 354
296 293 290 300 304 307 312 317 311 310 311 310 315 309 315 323 329 337 339 340 345 348 349 348 349 353 356 355 354 354 353 353 353 353 352 351 351 351 352 352 352 353 354 354 354 355 355 355 354
296 294 291 301 305 306 314 315 314 314 313 319 320 310 307 320 332 334 336 337 335 344 344 343 346 348 347 349 354 353 353 352 353 352 352 353 353 352 352 354 353 352 355 355 356 356 356 356 355
296 292 289 297 306 309 313 313 319 321 316 319 319 318 319 326 332 330 330 331 333 340 338 340 343 343 344 346 348 353 352 352 352 352 353 352 347 345 345 348 351 352 355 357 357 357 357 356 356
295 292 296 304 312 312 315 314 318 316 315 315 316 321 325 329 329 327 325 327 329 333 336 339 340 342 342 347 346 347 348 348 348 348 346 343 342 344 347 351 354 355 354 353 352 351 350 347 345
294 295 302 312 314 314 314 315 321 315 312 315 315 319 325 327 327 325 323 324 328 329 334 338 338 341 341 342 342 344 345 344 345 345 344 342 341 347 347 346 346 347 348 347 345 345 345 344 344
298 312 314 315 317 316 316 319 317 316 317 320 320 323 325 326 325 323 322 324 326 328 331 334 338 339 340 339 340 341 342 341 341 342 343 341 346 345 343 340 341 342 344 341 340 339 340 340 342
294 313 317 316 315 314 318 315 315 316 322 321 322 324 324 325 325 326 326 330 328 328 330 333 336 336 337 337 340 339 338 341 344 343 343 343 341 339 338 336 337 338 340 337 336 336 336 337 338
310 315 315 315 313 314 313 312 314 317 321 319 321 321 323 324 323 324 326 327 329 330 331 334 335 335 336 339 342 341 340 339 338 338 338 339 338 336 335 334 334 334 334 334 333 333 333 332 334
313 311 315 315 314 312 313 308 310 317 320 319 322 325 326 325 329 325 325 326 329 332 334 335 336 338 340 343 341 339 338 336 334 335 335 335 334 333 332 331 330 331 331 330 330 330 331 330 330
305 307 304 309 314 314 311 302 311 318 318 319 327 330 330 331 332 334 334 333 335 337 337 342 346 345 342 338 337 335 334 333 332 333 333 332 331 330 328 327 328 328 328 328 327 327 326 325 326
295 300 296 306 313 312 310 306 312 318 317 321 326 328 329 330 333 335 337 337 340 341 341 342 344 340 337 335 334 332 331 330 330 330 329 329 328 327 325 325 325 325 325 325 325 324 325 322 322
295 291 291 303 311 309 305 308 312 316 317 320 325 326 328 331 332 336 337 339 340 341 342 342 340 336 334 332 330 329 328 327 326 324 324 323 324 323 321 320 320 321 320 321 323 323 322 322 321
293 291 292 302 303 309 307 309 311 315 317 319 323 324 327 329 333 335 336 336 335 338 341 340 336 334 331 329 326 325 323 321 319 320 322 320 320 319 318 318 318 318 318 319 320 320 319 318 320
293 291 290 293 297 309 304 307 310 314 317 318 322 324 327 327 330 332 332 332 332 333 338 339 337 334 331 330 329 325 323 318 317 318 319 320 319 319 318 316 316 317 316 318 317 317 317 316 318
291 291 291 292 301 303 305 303 309 315 316 321 323 326 328 328 329 330 328 328 326 327 331 334 335 334 333 331 326 322 319 316 315 315 316 319 321 320 319 317 316 316 315 314 317 316 315 314 316
290 296 296 296 294 290 303 290 299 310 313 318 320 322 325 327 331 330 326 325 324 323 324 326 328 328 329 328 323 319 314 311 313 314 316 317 320 320 321 320 318 316 315 314 315 316 315 315 311
296 297 295 296 292 291 295 290 294 306 309 314 318 320 324 327 329 327 327 327 324 322 321 322 322 323 325 326 321 316 313 313 314 314 315 317 318 320 321 319 319 318 317 316 315 314 314 314 312
300 297 294 291 288 286 289 293 289 294 310 315 318 321 323 326 328 327 326 324 322 321 319 319 319 319 320 319 316 315 314 313 311 312 314 315 316 317 319 320 319 319 318 318 315 314 315 313 311
296 292 285 285 285 285 289 288 292 296 300 310 315 319 323 325 326 322 321 320 321 320 319 319 317 315 315 315 314 314 315 314 313 313 314 314 314 315 317 319 318 318 317 318 316 315 314 311 310
293 291 287 282 282 285 290 287 293 300 306 308 310 307 318 324 324 323 322 320 322 321 318 318 315 314 313 313 313 313 315 314 313 315 314 314 314 316 319 319 317 316 315 314 314 313 313 311 310
293 290 292 287 285 285 286 292 301 304 306 315 316 309 318 321 320 321 321 321 320 319 320 317 315 314 313 314 313 313 313 314 313 314 314 314 316 318 316 315 315 314 314 313 312 312 312 310 310
296 297 291 287 283 282 286 288 293 299 302 310 314 316 318 318 317 319 319 321 321 320 318 316 315 314 314 314 313 313 314 315 315 314 315 316 315 314 314 313 313 313 313 312 311 310 310 308 307
294 291 290 290 288 284 283 287 296 299 303 308 313 316 316 316 317 317 320 320 321 319 317 315 314 313 314 315 314 314 314 315 315 316 315 314 313 313 313 313 312 312 311 309 308 309 308 307 307
296 293 291 287 286 286 286 287 298 302 303 306 312 316 317 318 318 319 319 319 318 317 316 315 314 314 315 315 315 314 314 316 316 314 311 312 311 312 312 312 310 310 307 306 305 305 305 305 304
Wind_Speed
4 5 2 2 5 5 1 3 3 2 3 2 5 3 6 3 2 3 2 3 7 8 6 6 8 10 12 12 12 13 12 12 12 11 11 11 11 10 9 8 8 8 8 7 7 7 7 6 8
3 4 4 3 6 4 5 2 4 4 5 9 8 4 4 2 2 5 5 3 8 7 6 6 9 10 12 12 12 12 11 10 10 10 10 9 9 9 8 8 7 7 6 5 5 5 5 5 5
2 3 4 5 3 3 3 1 3 4 1 4 4 5 2 2 3 6 4 9 10 6 6 6 11 11 11 11 11 11 10 10 9 9 8 8 7 6 6 5 5 4 3 2 2 3 3 4 4
3 5 5 5 2 3 2 4 5 2 4 7 4 5 3 3 9 7 11 10 10 6 6 8 11 11 11 11 11 10 9 9 8 8 7 6 5 4 3 2 2 1 2 4 5 6 7 6 7
5 3 4 5 4 3 3 3 5 4 3 6 3 2 3 3 6 12 11 8 11 9 5 6 10 10 10 10 10 10 9 9 8 7 6 5 4 2 0 1 2 4 5 6 7 8 9 10 10
4 3 5 1 1 4 4 3 3 4 4 2 6 4 1 1 9 8 8 8 7 10 6 5 11 10 10 10 9 9 8 8 7 6 5 4 3 1 2 4 5 6 7 8 10 10 11 11 12
6 5 4 3 3 0 2 1 4 6 6 0 6 3 2 2 4 7 6 5 8 10 7 4 5 7 10 9 9 8 7 6 5 3 1 1 2 4 5 6 7 8 8 9 10 10 11 12 12
6 6 2 3 5 4 1 3 3 8 2 4 8 6 6 6 8 7 6 5 3 2 2 4 3 3 3 3 8 7 6 4 2 1 2 4 6 8 9 9 8 9 9 9 9 11 12 12 12
4 6 2 5 8 5 2 4 2 4 5 2 4 7 4 12 11 7 4 2 1 4 5 4 4 4 4 3 3 5 5 4 1 3 5 4 3 4 7 8 9 9 9 9 9 11 11 12 12
5 4 10 7 8 8 8 6 7 5 5 1 4 7 11 13 11 12 9 8 6 6 5 5 5 5 3 3 3 2 2 1 1 2 2 2 3 4 6 9 13 12 11 11 10 10 10 9 5
4 5 4 3 4 2 4 3 2 9 3 5 12 11 13 11 8 8 8 7 9 5 4 6 5 4 4 2 1 0 0 1 1 1 1 3 3 3 4 4 4 5 9 5 7 7 5 8 6
1 1 1 3 4 5 7 6 3 4 5 8 8 14 12 12 11 9 9 8 7 7 7 5 6 5 4 1 1 2 1 0 1 1 0 3 2 4 4 4 4 4 4 6 5 5 7 8 8
2 0 6 5 9 6 5 3 3 7 5 10 11 13 15 13 8 6 5 4 5 6 6 7 6 6 4 3 0 0 2 3 3 4 5 4 4 4 3 3 4 4 4 5 6 6 6 7 8
2 4 4 8 5 4 5 0 2 4 1 8 14 10 10 10 9 6 7 7 8 6 7 6 6 6 5 3 5 3 4 4 4 4 5 6 4 4 4 5 5 5 5 5 5 5 5 6 7
1 6 7 7 5 3 2 4 4 4 6 8 8 7 7 7 9 10 10 9 9 5 7 7 6 6 6 7 6 4 5 5 5 5 6 6 5 6 5 5 5 5 5 6 6 6 5 5 6
6 7 3 3 2 5 5 10 4 5 7 7 8 7 7 6 7 6 6 7 8 8 8 6 7 9 9 9 6 5 5 5 4 5 5 6 7 6 6 5 5 4 5 4 4 6 6 7 6
8 4 1 1 3 3 1 7 4 7 7 7 7 7 7 5 4 5 5 7 7 9 10 8 10 11 11 9 7 6 6 5 4 5 5 7 7 6 6 4 4 5 5 5 4 5 4 7 7
5 5 2 4 7 3 2 14 5 2 6 8 8 7 7 7 6 5 6 5 6 8 9 11 9 11 10 8 7 5 4 4 4 4 4 5 5 6 6 5 6 5 6 6 4 4 5 4 7
5 4 6 5 8 8 15 15 11 6 6 9 9 9 8 7 5 5 5 5 7 7 11 12 13 11 11 7 5 3 3 3 4 4 5 6 5 5 6 5 5 5 5 4 5 3 5 7 9
6 8 7 4 3 10 2 16 5 6 5 5 9 10 12 7 7 6 6 4 2 6 7 10 12 11 8 7 3 4 3 3 4 3 4 5 6 6 6 5 5 5 4 6 6 5 3 4 6
5 5 4 4 3 3 5 6 6 6 5 5 7 8 8 14 15 11 7 6 6 6 5 6 8 9 7 8 7 5 4 4 3 3 3 3 5 5 6 6 4 4 4 4 4 5 6 4 3
3 8 4 8 6 4 2 5 5 6 8 7 9 13 13 12 10 11 11 9 9 7 5 5 5 6 6 8 9 11 6 6 2 3 3 3 4 5 5 5 5 5 3 5 3 4 3 2 4
9 6 5 2 5 5 1 5 9 4 6 12 14 14 16 17 17 17 15 13 9 8 8 7 7 7 6 5 7 7 6 5 3 3 5 4 3 4 4 5 4 4 3 3 4 4 5 3 2
7 8 8 6 3 2 5 7 7 5 12 12 14 16 17 18 17 12 10 11 8 9 7 5 7 6 7 6 7 9 11 9 7 4 4 3 1 2 4 4 4 3 4 3 3 3 4 3 3
7 8 3 3 4 6 1 4 10 6 6 9 12 17 17 14 16 15 17 11 12 10 9 8 6 7 7 8 8 8 11 11 10 7 4 4 2 2 3 3 4 3 4 4 3 3 3 3 2
5 8 8 7 5 7 2 6 8 7 5 8 11 12 9 14 15 17 14 13 5 7 8 6 9 8 8 8 9 8 10 8 6 5 4 3 3 2 2 4 4 5 5 4 4 3 3 3 3
5 4 4 9 4 2 3 6 9 4 6 3 7 5 7 12 14 15 18 18 19 19 22 14 10 8 9 9 8 7 6 9 7 6 5 3 4 4 5 5 5 5 5 5 4 3 4 4 3
4 5 4 3 5 5 5 4 7 5 10 5 5 7 7 7 9 11 14 17 14 12 10 10 9 11 10 8 6 7 7 6 7 6 6 6 5 5 5 4 4 5 4 5 5 4 5 5 4
3 1 6 6 5 8 3 8 9 9 9 9 8 8 8 10 13 15 17 17 15 9 10 12 9 8 9 8 7 8 7 6 7 6 6 5 4 5 7 4 4 5 5 6 5 5 6 6 6
2 7 7 7 5 1 4 9 4 9 7 8 9 9 8 11 13 14 12 12 12 13 12 13 10 9 9 7 8 7 8 8 8 7 7 5 5 4 5 4 5 5 5 5 6 6 6 7 7
Wind_Direction
95 120 113 70 49 61 359 306 315 276 81 75 96 152 146 77 158 206 302 146 113 113 123 122 135 128 113 105 100 97 92 89 88 89 90 91 92 93 91 91 93 100 104 95 84 76 74 55 33
117 132 36 81 81 55 295 273 333 7 82 110 92 72 64 75 88 113 117 144 95 108 109 122 138 134 122 113 106 100 98 98 99 99 98 96 97 97 95 94 96 100 100 90 77 65 59 41 23
143 50 80 87 94 149 182 148 129 52 76 18 96 67 96 129 55 162 154 140 127 106 125 156 150 143 130 122 118 118 118 116 112 111 112 110 107 102 98 92 89 90 87 62 19 4 358 346 332
73 11 29 79 70 32 34 135 124 89 48 46 103 66 70 194 151 155 139 138 139 148 153 167 159 151 141 135 132 130 127 124 125 128 132 130 123 116 103 92 71 21 333 322 318 317 315 311 308
36 59 51 76 312 311 303 164 138 95 89 11 46 89 71 18 97 131 140 140 147 162 160 161 165 157 147 143 144 145 145 144 144 145 145 143 143 146 169 312 305 300 297 299 303 306 309 310 309
45 92 55 294 289 319 287 17 79 80 75 109 87 108 215 33 133 150 147 145 150 161 169 171 172 168 161 156 158 159 159 158 161 162 160 161 172 225 280 290 292 292 295 301 306 307 304 303 303
110 82 187 160 164 231 214 41 105 136 110 84 149 76 357 235 163 139 133 130 154 169 168 186 173 178 173 170 173 173 175 175 179 186 179 316 322 310 300 292 291 293 293 293 293 291 289 288 290
105 93 104 201 187 212 221 105 165 100 179 108 159 169 190 197 144 98 83 99 113 152 171 187 169 171 171 181 185 184 187 197 209 278 344 346 341 334 324 312 297 292 289 289 292 294 292 289 284
118 61 205 235 162 201 224 140 169 110 123 195 178 139 209 125 120 108 108 85 129 192 195 192 182 190 185 192 213 199 203 214 251 350 349 354 350 330 319 311 312 308 301 302 306 323 327 321 307
102 130 221 196 176 168 193 160 145 129 147 312 64 65 107 132 149 160 172 182 198 210 220 206 188 195 191 206 184 203 230 50 33 21 359 358 2 351 36 47 48 45 40 37 25 11 4 358 346
165 201 216 184 173 177 116 94 91 122 182 206 172 148 141 149 167 181 182 193 200 196 190 201 202 193 187 220 88 270 274 40 42 27 335 18 29 51 44 31 24 23 25 20 9 3 2 354 352
238 23 174 84 65 81 117 127 106 132 212 155 161 154 152 164 180 186 196 190 181 186 195 197 193 188 205 166 111 241 136 156 70 328 148 97 84 61 50 40 26 31 21 18 10 4 356 358 352
177 212 51 59 63 69 80 70 163 206 255 142 149 159 173 174 179 173 171 180 173 198 195 199 179 191 192 172 56 223 118 81 109 84 80 91 87 82 76 54 44 35 21 20 13 7 2 358 350
139 90 61 40 45 68 117 49 111 228 12 133 155 176 173 170 171 149 181 186 194 184 193 186 191 184 143 119 101 82 93 89 77 71 72 73 80 79 63 55 42 34 24 16 17 13 1 353 350
97 66 35 34 19 16 325 325 212 169 150 127 136 148 149 174 163 190 193 186 182 187 167 185 180 134 123 110 90 78 84 79 78 77 72 75 73 70 67 59 47 26 17 22 23 13 7 1 355
66 62 79 347 75 5 62 249 252 156 144 145 144 144 148 155 170 176 175 160 157 142 155 144 121 111 100 100 94 90 82 81 70 66 70 72 74 69 68 64 46 22 31 24 25 16 8 1 359
16 154 185 334 168 92 91 261 344 151 160 159 154 148 152 124 124 132 136 137 142 139 134 112 104 108 110 97 95 88 85 79 64 67 61 60 66 70 75 67 48 32 36 29 21 19 9 4 355
178 117 160 222 209 128 189 259 290 235 166 172 165 157 154 156 162 134 116 110 106 109 111 114 116 119 110 102 94 77 74 74 71 72 73 77 76 73 71 61 53 43 45 30 15 17 7 4 344
112 122 180 233 217 141 215 232 254 218 166 176 184 172 168 169 150 136 130 122 114 117 126 132 134 141 133 134 126 113 97 98 70 59 70 71 70 68 68 63 57 46 57 39 23 359 4 12 358
170 192 218 222 269 183 150 237 250 206 229 182 190 185 179 155 169 172 153 140 115 135 131 142 149 152 148 144 138 122 166 99 104 96 76 83 82 72 76 74 61 47 52 39 29 25 2 359 11
207 202 199 189 90 29 109 310 200 228 185 181 189 201 197 190 179 178 171 152 132 141 153 157 153 157 153 137 121 101 92 74 82 69 76 48 76 78 75 69 70 58 49 42 29 26 39 15 347
220 205 167 130 127 211 170 263 255 214 209 199 198 197 197 194 192 180 177 173 160 158 143 138 147 150 149 157 143 151 139 131 159 130 105 86 67 70 76 74 58 53 46 45 20 28 39 62 23
225 136 161 107 146 97 231 78 270 145 206 223 219 210 201 196 186 188 184 169 171 144 149 152 147 148 155 160 142 135 122 116 118 101 125 104 64 55 62 64 59 45 41 50 41 27 33 47 62
143 67 48 53 81 65 224 143 280 197 211 220 223 226 212 195 188 179 169 148 151 156 132 134 142 150 164 145 139 142 137 138 133 151 133 116 93 60 56 55 41 28 23 21 33 32 39 48 75
65 71 5 351 359 221 105 86 235 227 241 233 238 234 222 184 180 168 174 145 185 147 144 138 192 165 160 151 153 149 149 152 154 156 142 149 147 72 50 56 39 36 31 37 21 41 61 54 50
175 153 155 193 199 240 67 234 252 208 205 248 262 253 224 179 177 181 151 154 150 121 97 285 182 154 168 163 159 160 159 156 150 148 136 147 130 123 91 85 77 62 49 39 31 48 63 62 53
176 181 170 102 15 49 233 290 312 286 299 335 291 257 183 169 175 169 161 170 167 185 173 186 184 171 169 165 159 162 143 144 156 138 127 129 127 103 78 68 60 51 39 31 28 37 36 37 29
154 154 83 10 139 230 285 277 232 255 256 263 237 194 173 150 154 165 164 175 189 190 151 172 179 179 166 157 146 146 153 140 129 131 128 124 114 103 90 80 62 46 40 40 39 34 19 33 15
139 192 54 114 127 170 203 262 217 219 217 226 233 219 196 182 176 177 184 187 186 160 166 173 175 168 165 154 143 146 144 115 100 109 109 107 98 101 98 87 72 59 35 28 41 32 30 26 11
201 172 139 127 224 202 154 265 224 231 237 210 236 215 215 204 195 193 189 181 177 175 171 181 168 173 168 153 140 133 109 112 119 117 115 109 99 101 108 93 72 68 68 52 44 34 24 24 16